User: anonymous   Login
Location: Mentone
(34.5413°N, 85.5351°W)
Time: 13:57:24
(UTC-05:00)
Language:

Uosat F - Orbit

View from above orbital plane
View from above orbital plane
View from above satellite
View from above satellite

Ground track
Ground track

The orbit data is extracted from the following two-line orbital elements,

1 21575U 91050B   14298.11276892  .00000581  00000-0  19729-3 0  1532
2 21575 098.7155 276.5588 0006208 298.2628 193.3390 14.40455197222184
Epoch (UTC): 25 October 2014 02:42:23
Eccentricity: 0.0006208
inclination: 98.7155°
perigee height: 752 km
apogee height: 761 km
right ascension of ascending node: 276.5588°
argument of perigee: 298.2628°
revolutions per day: 14.40455197
mean anomaly at epoch: 193.3390°
orbit number at epoch: 22218

The dashed part of the orbit path shows where the satellite is in the earth's shadow,  

DLR